• In Portugal
  • List of Countries
  • For 7 days
  • Water Temperature
  • Satellite Maps
  • Weather Map
  • Weather Widgets
  • user-avatar
    Login

    Hourly Weather Chrzastowko

    Today, 19 October, Friday

    Time Temperature Precipitation Wind Pressure Humidity
    00:00 +10°C° 0 mm 2 mps 753 mmHg 93%
    01:00 +10°C° 0 mm 2 mps 753 mmHg 96%
    02:00 +10°C° 0 mm 2 mps 753 mmHg 95%
    03:00 +10°C° 0 mm 2 mps 753 mmHg 95%
    04:00 +10°C° 0 mm 2 mps 753 mmHg 95%
    05:00 +9°C° 0 mm 2 mps 754 mmHg 93%
    06:00 +9°C° 0 mm 2 mps 754 mmHg 92%
    07:00 +9°C° 0 mm 2 mps 754 mmHg 90%
    08:00 +12°C° 0 mm 2 mps 754 mmHg 80%
    09:00 +13°C° 0 mm 2 mps 755 mmHg 70%
    10:00 +14°C° 0 mm 2 mps 755 mmHg 59%
    11:00 +15°C° 0 mm 2 mps 755 mmHg 55%
    12:00 +16°C° 0 mm 2 mps 755 mmHg 50%
    13:00 +16°C° 0 mm 2 mps 755 mmHg 46%
    14:00 +16°C° 0 mm 1 mps 755 mmHg 48%
    15:00 +15°C° 0 mm 1 mps 755 mmHg 50%
    16:00 +15°C° 0 mm 1 mps 755 mmHg 52%
    17:00 +13°C° 0 mm 1 mps 755 mmHg 55%
    18:00 +12°C° 0 mm 1 mps 755 mmHg 58%
    19:00 +11°C° 0 mm 1 mps 755 mmHg 61%
    20:00 +11°C° 0 mm 1 mps 755 mmHg 63%
    21:00 +10°C° 0 mm 1 mps 755 mmHg 65%
    22:00 +9°C° 0 mm 1 mps 755 mmHg 67%
    23:00 +9°C° 0 mm 1 mps 756 mmHg 69%

    Tomorrow, 20 October, Saturday

    Time Temperature Precipitation Wind Pressure Humidity
    00:00 +9°C° 0 mm 1 mps 756 mmHg 70%
    01:00 +9°C° 0 mm 1 mps 756 mmHg 72%
    02:00 +9°C° 0 mm 1 mps 756 mmHg 73%
    03:00 +9°C° 0 mm 1 mps 755 mmHg 75%
    04:00 +8°C° 0 mm 1 mps 755 mmHg 76%
    05:00 +8°C° 0 mm 1 mps 756 mmHg 79%
    06:00 +7°C° 0 mm 2 mps 756 mmHg 83%
    07:00 +6°C° 0 mm 2 mps 756 mmHg 86%
    08:00 +8°C° 0 mm 2 mps 756 mmHg 80%
    09:00 +9°C° 0 mm 3 mps 757 mmHg 75%
    10:00 +11°C° 0 mm 3 mps 757 mmHg 69%
    11:00 +11°C° 0 mm 4 mps 757 mmHg 65%
    12:00 +11°C° 0 mm 4 mps 757 mmHg 62%
    13:00 +12°C° 0 mm 4 mps 757 mmHg 59%
    14:00 +11°C° 0 mm 4 mps 756 mmHg 61%
    15:00 +11°C° 0 mm 4 mps 756 mmHg 63%
    16:00 +10°C° 0 mm 4 mps 756 mmHg 65%
    17:00 +10°C° 0.1 mm 4 mps 756 mmHg 69%
    18:00 +10°C° 0.1 mm 4 mps 756 mmHg 73%
    19:00 +8°C° 0.1 mm 4 mps 756 mmHg 77%
    20:00 +9°C° 0 mm 3 mps 756 mmHg 80%
    21:00 +8°C° 0 mm 3 mps 756 mmHg 83%
    22:00 +8°C° 0 mm 3 mps 756 mmHg 87%
    23:00 +8°C° 0 mm 3 mps 756 mmHg 88%

    Day after tomorrow, 21 October, Sunday

    Time Temperature Precipitation Wind Pressure Humidity
    00:00 +7°C° 0 mm 3 mps 756 mmHg 90%
    01:00 +7°C° 0 mm 3 mps 756 mmHg 92%
    02:00 +7°C° 0 mm 3 mps 756 mmHg 93%
    03:00 +5°C° 0 mm 3 mps 756 mmHg 93%
    04:00 +6°C° 0 mm 2 mps 756 mmHg 94%
    05:00 +6°C° 0 mm 2 mps 756 mmHg 94%
    06:00 +6°C° 0 mm 2 mps 756 mmHg 95%
    07:00 +6°C° 0 mm 2 mps 756 mmHg 95%
    08:00 +8°C° 0 mm 2 mps 756 mmHg 87%
    09:00 +9°C° 0 mm 2 mps 756 mmHg 79%
    10:00 +11°C° 0 mm 3 mps 756 mmHg 71%
    11:00 +13°C° 0 mm 2 mps 756 mmHg 66%
    12:00 +13°C° 0 mm 2 mps 756 mmHg 62%
    13:00 +14°C° 0 mm 2 mps 756 mmHg 57%
    14:00 +14°C° 0 mm 2 mps 756 mmHg 59%
    15:00 +13°C° 0 mm 1 mps 756 mmHg 62%
    16:00 +13°C° 0 mm 1 mps 756 mmHg 64%
    17:00 +12°C° 0 mm 1 mps 756 mmHg 69%
    18:00 +11°C° 0 mm 1 mps 756 mmHg 74%
    19:00 +9°C° 0 mm 1 mps 756 mmHg 79%
    20:00 +9°C° 0 mm 1 mps 756 mmHg 82%
    21:00 +9°C° 0 mm 1 mps 756 mmHg 84%
    22:00 +8°C° 0 mm 1 mps 756 mmHg 86%
    23:00 +8°C° 0 mm 1 mps 756 mmHg 88%

    22 October, Monday

    Time Temperature Precipitation Wind Pressure Humidity
    00:00 +8°C° 0 mm 1 mps 755 mmHg 89%
    01:00 +7°C° 0 mm 2 mps 755 mmHg 91%
    02:00 +7°C° 0 mm 2 mps 755 mmHg 92%
    03:00 +6°C° 0 mm 2 mps 754 mmHg 92%
    04:00 +6°C° 0 mm 2 mps 754 mmHg 93%
    05:00 +5°C° 0 mm 3 mps 754 mmHg 93%
    06:00 +5°C° 0 mm 3 mps 754 mmHg 93%
    07:00 +5°C° 0 mm 3 mps 754 mmHg 93%
    08:00 +7°C° 0.1 mm 3 mps 754 mmHg 90%
    09:00 +7°C° 0.1 mm 4 mps 754 mmHg 88%
    10:00 +8°C° 0.1 mm 4 mps 754 mmHg 85%
    11:00 +8°C° 0.3 mm 4 mps 754 mmHg 85%
    12:00 +8°C° 0.3 mm 4 mps 754 mmHg 86%
    13:00 +8°C° 0.3 mm 4 mps 753 mmHg 86%
    14:00 +8°C° 0.4 mm 4 mps 753 mmHg 83%
    15:00 +8°C° 0.4 mm 4 mps 754 mmHg 79%
    16:00 +9°C° 0.4 mm 3 mps 754 mmHg 76%
    17:00 +8°C° 0.1 mm 3 mps 754 mmHg 77%
    18:00 +8°C° 0.1 mm 3 mps 754 mmHg 78%
    19:00 +7°C° 0.1 mm 3 mps 754 mmHg 78%
    20:00 +7°C° 0 mm 3 mps 754 mmHg 79%
    21:00 +7°C° 0 mm 3 mps 754 mmHg 79%
    22:00 +5°C° 0 mm 3 mps 754 mmHg 80%
    23:00 +5°C° 0 mm 3 mps 754 mmHg 81%

    23 October, Tuesday

    Time Temperature Precipitation Wind Pressure Humidity
    00:00 +5°C° 0 mm 3 mps 754 mmHg 83%
    01:00 +5°C° 0 mm 2 mps 754 mmHg 84%
    02:00 +4°C° 0 mm 3 mps 753 mmHg 85%
    03:00 +4°C° 0 mm 3 mps 753 mmHg 86%
    04:00 +4°C° 0 mm 3 mps 753 mmHg 88%
    05:00 +4°C° 0 mm 3 mps 752 mmHg 88%
    06:00 +3°C° 0 mm 3 mps 752 mmHg 88%
    07:00 +3°C° 0 mm 4 mps 751 mmHg 88%
    08:00 +5°C° 0 mm 4 mps 751 mmHg 83%
    09:00 +6°C° 0 mm 5 mps 751 mmHg 79%
    10:00 +7°C° 0 mm 6 mps 750 mmHg 74%
    11:00 +6°C° 0.4 mm 7 mps 749 mmHg 75%
    12:00 +6°C° 0.4 mm 7 mps 749 mmHg 77%
    13:00 +6°C° 0.4 mm 7 mps 748 mmHg 79%
    14:00 +6°C° 0.2 mm 7 mps 747 mmHg 79%
    15:00 +6°C° 0.2 mm 7 mps 747 mmHg 80%
    16:00 +7°C° 0.2 mm 6 mps 747 mmHg 81%
    17:00 +7°C° 0.1 mm 6 mps 746 mmHg 79%
    18:00 +7°C° 0.1 mm 5 mps 746 mmHg 78%
    19:00 +6°C° 0.1 mm 4 mps 746 mmHg 77%
    20:00 +6°C° 0 mm 4 mps 746 mmHg 78%
    21:00 +6°C° 0 mm 4 mps 746 mmHg 80%
    22:00 +5°C° 0 mm 4 mps 745 mmHg 82%
    23:00 +6°C° 0.5 mm 4 mps 744 mmHg 84%

    24 October, Wednesday

    Time Temperature Precipitation Wind Pressure Humidity
    00:00 +7°C° 0.5 mm 5 mps 743 mmHg 87%
    01:00 +8°C° 0.5 mm 6 mps 742 mmHg 89%
    02:00 +9°C° 0.8 mm 7 mps 741 mmHg 89%
    03:00 +9°C° 0.8 mm 8 mps 739 mmHg 88%
    04:00 +10°C° 0.8 mm 8 mps 738 mmHg 88%
    05:00 +10°C° 0.2 mm 9 mps 737 mmHg 86%
    06:00 +11°C° 0.2 mm 9 mps 737 mmHg 84%
    07:00 +11°C° 0.2 mm 9 mps 736 mmHg 82%
    08:00 +11°C° 0.3 mm 9 mps 736 mmHg 78%
    09:00 +11°C° 0.3 mm 10 mps 736 mmHg 74%
    10:00 +11°C° 0.3 mm 10 mps 736 mmHg 70%
    11:00 +11°C° 0.1 mm 11 mps 736 mmHg 63%
    12:00 +11°C° 0.1 mm 11 mps 737 mmHg 56%
    13:00 +11°C° 0.1 mm 11 mps 737 mmHg 49%
    14:00 +11°C° 0 mm 11 mps 738 mmHg 48%
    15:00 +9°C° 0 mm 10 mps 739 mmHg 48%
    16:00 +8°C° 0 mm 9 mps 739 mmHg 48%
    17:00 +7°C° 0 mm 9 mps 740 mmHg 50%
    18:00 +7°C° 0 mm 8 mps 742 mmHg 53%
    19:00 +6°C° 0 mm 7 mps 743 mmHg 55%
    20:00 +6°C° 0 mm 7 mps 744 mmHg 56%
    21:00 +5°C° 0 mm 6 mps 745 mmHg 57%
    22:00 +5°C° 0 mm 6 mps 746 mmHg 58%
    23:00 +6°C° 0 mm 5 mps 746 mmHg 58%
    Show more